Miscellaneous Local Product
Issued by NWS North Platte, NE

Home | Current Version | Previous Version | Text Only | Print | Product List | Glossary On
Versions: 1 2 3 4 5 6 7 8 9 10 11 12 13 14 15 16 17 18 19 20 21 22 23 24 25 26 27 28 29 30 31 32 33 34 35 36 37 38 39 40 41 42 43 44 45 46 47 48 49 50
000
AXUS43 KLBF 180410
MISLBF


WESTERN AND NORTH CENTRAL NEBRASKA HOURLY WEATHER ROUNDUP
NATIONAL WEATHER SERVICE NORTH PLATTE NE
1100 PM CDT THU APR 17 2014

***STATIONS NOT REPORTING VARIABLES SUCH AS SKY/WEATHER OR
PRESSURE ARE PROVIDED BY THE NEBRASKA DEPARTMENT OF
ROADS...RAWS...AND APRS NETWORKS...AND ARE NOT UNDER
NATIONAL WEATHER SERVICE QUALITY CONTROL***

...OBSERVATIONS IN AND NEAR THE EASTERN PANHANDLE OF NEBRASKA...

CITY           SKY/WX    TMP DP  RH WIND       PRES   REMARKS
PINE RIDGE     PTCLDY    49  36  61 S18G26    29.98F
CHADRON        PTCLDY    50  38  63 SE28G35   29.94F
ALLIANCE       CLEAR     45  37  73 SE17      29.99F
SIDNEY         PTCLDY    47  36  65 S16       30.03R
WHITECLAY        N/A     43  33  69 SE8         N/A
CRESCENT LAKE    N/A     45  37  73 S13G20      N/A
LISCO            N/A     48  36  62 E15         N/A
BIG SPRINGS      N/A     48  39  70 S17         N/A
LEWELLEN         N/A     47  35  61 SE13        N/A
$$

...OBSERVATIONS IN SOUTHWEST NEBRASKA AND FAR NORTHEAST COLORADO...

CITY           SKY/WX    TMP DP  RH WIND       PRES   REMARKS
WRAY           FAIR      46  39  78 S9        30.10S
HOLYOKE        FAIR      46  37  71 S17       30.07S
IMPERIAL       CLEAR     47  37  68 S20G30    30.11R
OGALLALA       CLEAR     48  36  62 S21G26    30.07R
NORTH PLATTE   CLEAR     42  31  64 SE9       30.12S
MCCOOK         CLEAR     46  34  62 S13       30.16S
LEXINGTON      CLEAR     44  32  63 SE12      30.17S
PAXTON           N/A     47  37  68 SE13        N/A
SUTHERLAND       N/A     39  32  75 SE8         N/A  WCI  34
MEDICINE CREEK   N/A     44  35  70 CALM        N/A
GOTHENBURG       N/A     45  34  65 SE6         N/A
CALLAWAY         N/A     42  34  72 SE12        N/A
$$

...OBSERVATIONS IN NORTH CENTRAL NEBRASKA...

CITY           SKY/WX    TMP DP  RH WIND       PRES   REMARKS
VALENTINE      CLEAR     42  26  53 SE13      30.10S
THEDFORD       CLEAR     45  33  62 SE10      30.12S
AINSWORTH      CLEAR     42  28  57 SE9       30.13R
O`NEILL        CLEAR     41  23  48 SE7       30.19S
ORD            CLEAR     41  27  57 SE6       30.17F
BROKEN BOW     CLEAR     38  28  67 S5        30.15F WCI  34
BROWNLEE         N/A     44  31  62 SE15        N/A
SPRINGVIEW       N/A     42  28  58 E5G12       N/A
DUNNING          N/A     37  30  77 S5          N/A  WCI  33
BREWSTER         N/A     41  29  62 S8          N/A
ROSE             N/A     39  29  68 E9          N/A  WCI  32
NEWPORT          N/A     39  28  64 SE8         N/A  WCI  33
COMSTOCK         N/A     43  28  55 S9          N/A
CHAMBERS         N/A     37  21  52 S3          N/A
EWING            N/A     38  23  55 CALM        N/A
$$

...SOME WEATHER OBSERVATIONS FROM AROUND THE REGION...

CITY           SKY/WX    TMP DP  RH WIND       PRES   REMARKS
DENVER         PTCLDY    48  32  53 S18       30.01R
LARAMIE        MOCLDY    39  22  50 S9        30.02S WCI  33
CHEYENNE       PTCLDY    45  25  45 S10G18    30.01S
SCOTTSBLUFF    CLEAR     46  37  71 SE16      29.97S
RAPID CITY     CLEAR     41  33  73 SE9       29.97S
PIERRE         CLEAR     38  25  59 SE16      30.09F WCI  29
WINNER         FAIR      37  23  56 SE16      30.11F WCI  28
SIOUX FALLS    CLOUDY    38  25  59 E8        30.26F WCI  32
OMAHA          CLEAR     41  30  65 CALM      30.27S
GRAND ISLAND   CLEAR     43  28  55 SE7       30.22S
KANSAS CITY    CLEAR     40  31  70 S5        30.28S
WICHITA        PTCLDY    40  35  83 CALM      30.27S HAZE
HAYS           CLEAR     41  28  60 S5        30.23S
LIBERAL        MOCLDY    45  37  76 SE9       30.25S
GOODLAND       CLEAR     41  38  89 S18       30.15R
$$



USA.gov is the U.S. government's official web portal to all federal, state and local government web resources and services.